Home > Weather > Northeim > Past weeks

Flag for Germany Weather for the Past 2 Weeks in Northeim, Lower Saxony, Germany

Now
43 °F

Scattered clouds.


Feels Like: 37 °F
Forecast: 33 / 63 °F
Wind: 9 mph from North

Location: Kassel / Calden

Current Time: May 4, 2016 at 10:33:02 AM

Latest Report: May 4, 2016 at 9:50 AM


Visibility: N/A

Pressure: 30.39 "Hg

Humidity: 87%

Dew Point: 39 °F

Location of NortheimLocation

Historic Weather in Northeim — Graph

°F

Northeim Temperature Yesterday

Maximum temperature yesterday: 54 °F (at 9:50 AM)
Minimum temperature yesterday: 46 °F (at 7:20 AM)
Average temperature yesterday: 50 °F

High & Low Weather Summary for the Past Weeks

 TemperatureHumidityPressure
High66 °F (May 2, 5:20 PM)100% (Apr 20, 6:50 AM)30.45 "Hg (Apr 20, 6:50 AM)
Low32 °F (Apr 24, 7:20 PM)30% (May 2, 5:50 PM)29.45 "Hg (Apr 26, 1:20 PM)
Average47 °F66%30.01 "Hg
* Reported Apr 19 8:50 AM — May 4 8:20 AM, Northeim, Weather by CustomWeather, © 2016

Note: Actual official high and low records may vary slightly from our data, if they occured in-between our weather recording intervals... More about our weather records

Advertising

Northeim Weather History for the Previous 24 Hours

Scroll right to see more
 ConditionsComfort  
Time TempWeatherWind HumidityBarometerVisibility
8:20 AM
Wed, May 4
39 °FScattered clouds.1 mph93%30.39 "HgN/A
7:50 AM36 °FScattered clouds.1 mph100%30.39 "HgN/A
7:20 AM37 °FScattered clouds.1 mph93%30.39 "HgN/A
9:20 PM
Tue, May 3
48 °FScattered clouds.10 mph66%30.24 "HgN/A
8:50 PM48 °FScattered clouds.10 mph66%30.21 "HgN/A
8:20 PM48 °FScattered clouds.10 mph71%30.21 "HgN/A
7:50 PM50 °FScattered clouds.9 mph67%30.18 "HgN/A
7:20 PM52 °FScattered clouds.8 mph62%30.18 "HgN/A
6:50 PM52 °FScattered clouds.17 mph58%30.18 "HgN/A
6:20 PM52 °FScattered clouds.15 mph62%30.18 "HgN/A
5:50 PM52 °FBroken clouds.17 mph62%30.15 "HgN/A
5:20 PM52 °FBroken clouds.16 mph67%30.15 "HgN/A
4:50 PM52 °FBroken clouds.3 mph67%30.15 "HgN/A
4:20 PM52 °FBroken clouds.6 mph72%30.15 "HgN/A
3:50 PM50 °FBroken clouds.7 mph76%30.15 "HgN/A
3:20 PM50 °FBroken clouds.8 mph88%30.15 "HgN/A
2:50 PM48 °FBroken clouds.10 mph82%30.15 "HgN/A
2:20 PM48 °FBroken clouds.7 mph94%30.15 "HgN/A
1:20 PM46 °FLight rain. Broken clouds.12 mph100%30.15 "HgN/A
12:50 PM46 °FLight rain. Broken clouds.14 mph100%30.12 "HgN/A
12:20 PM46 °FLight rain. Partly sunny.15 mph100%30.12 "Hg6 mi
11:50 AM46 °FLight rain. Partly sunny.14 mph100%30.12 "Hg6 mi
11:20 AM46 °FLight rain. Broken clouds.17 mph100%30.12 "Hg6 mi
10:50 AM52 °FDrizzle. Broken clouds.17 mph82%30.09 "HgN/A
10:20 AM54 °FPartly sunny.7 mph67%30.07 "HgN/A
Weather by CustomWeather, © 2016

See weather overviewHow to use our weather pages